{"data":{"norad_id":46585,"intl_designator":"2020-070BF","name":"STARLINK-1736","alt_names":[],"object_type":"PAYLOAD","status":"ACTIVE","operator":null,"country":"US","launch_date":"2020-10-06","launch_site_code":"AFETR","launch_vehicle":null,"mission":null,"orbit_class":"UNKNOWN","rcs_meters":null,"size_class":null,"mass_kg":null,"dimensions":null,"purposes":["comms"],"wikipedia_slug":null,"has_3d_model":false,"image_url":null,"decayed_at":null,"tle_current":{"epoch":"2026-06-15T17:26:33.379008Z","epoch_age_seconds":8369080,"freshness":"OLD","line1":"1 46585U 20070BF  26166.72677522  .11013613  12531-4  34518-3 0  9992","line2":"2 46585  53.0176 341.7037 0009240 289.1749  70.8299 16.44221652315885","mean_motion":16.44221652,"eccentricity":0.000924,"inclination_deg":53.0176,"raan_deg":341.7037,"arg_perigee_deg":289.1749,"mean_anomaly_deg":70.8299,"bstar":0.00034518,"rev_number":31588,"period_min":87.579432994841,"perigee_km":148.56011904947,"apogee_km":160.63261030739,"semimajor_km":6532.7333646784,"source":"CELESTRAK","updated_at":"2026-06-16T09:00:40.100444Z"}}}